Location: ????????
(60.4333°N, 46.4710°E)
Time: 19:24:28
(UTC+00:00)

Cosmos 1606 - Pass Details

Date: 25 November 2020
Orbit: 502 x 528 km, 82.5° (Epoch: 17 January)

Event Time Altitude Azimuth Distance (km) Brightness Sun altitude
Rises 15:13:01 0° 200° (SSW) 2,663 6.6 -22.0°
Reaches altitude 10° 15:15:10 10° 202° (SSW) 1,777 5.7 -22.2°
Maximum altitude 15:19:03 69° 286° (WNW) 574 3.0 -22.7°
Enters shadow 15:20:04 46° 352° (N) 724 3.4 -22.8°
